Year,Month,Day,Hour,Minute,Value (Times are PST for temperature in C)
2018,09,28,00,00,17.30
2018,09,28,00,01,17.40
2018,09,28,00,02,17.40
2018,09,28,00,03,17.40
2018,09,28,00,04,17.40
2018,09,28,00,05,17.40
2018,09,28,00,06,17.40
2018,09,28,00,07,17.40
2018,09,28,00,08,17.40
2018,09,28,00,09,17.40
2018,09,28,00,10,17.40
2018,09,28,00,11,17.40
2018,09,28,00,12,17.40
2018,09,28,00,13,17.30
2018,09,28,00,14,17.30
2018,09,28,00,15,17.30
2018,09,28,00,16,17.30
2018,09,28,00,17,17.20
2018,09,28,00,18,17.20
2018,09,28,00,19,17.20
2018,09,28,00,20,17.10
2018,09,28,00,21,17.10
2018,09,28,00,22,17.10
2018,09,28,00,23,17.00
2018,09,28,00,24,17.00
2018,09,28,00,25,16.90
2018,09,28,00,26,16.90
2018,09,28,00,27,16.90
2018,09,28,00,28,16.90
2018,09,28,00,29,16.90
2018,09,28,00,30,16.90
2018,09,28,00,31,16.90
2018,09,28,00,32,16.90
2018,09,28,00,33,16.90
2018,09,28,00,34,16.80
2018,09,28,00,35,16.80
2018,09,28,00,36,16.80
2018,09,28,00,37,16.80
2018,09,28,00,38,16.80
2018,09,28,00,39,16.80
2018,09,28,00,40,16.80
2018,09,28,00,41,16.80
2018,09,28,00,42,16.80
2018,09,28,00,43,16.80
2018,09,28,00,44,16.80
2018,09,28,00,45,16.80
2018,09,28,00,46,16.90
2018,09,28,00,47,16.90
2018,09,28,00,48,16.90
2018,09,28,00,49,16.90
2018,09,28,00,50,17.00
2018,09,28,00,51,17.00
2018,09,28,00,52,17.00
2018,09,28,00,53,17.00
2018,09,28,00,54,17.10
2018,09,28,00,55,17.10
2018,09,28,00,56,17.10
2018,09,28,00,57,17.10
2018,09,28,00,58,17.10
2018,09,28,00,59,17.10
2018,09,28,01,00,17.10
2018,09,28,01,01,17.10
2018,09,28,01,02,17.10
2018,09,28,01,03,17.10
2018,09,28,01,04,17.10
2018,09,28,01,05,17.10
2018,09,28,01,06,17.10
2018,09,28,01,07,17.00
2018,09,28,01,08,17.00
2018,09,28,01,09,17.00
2018,09,28,01,10,17.00
2018,09,28,01,11,17.00
2018,09,28,01,12,17.00
2018,09,28,01,13,17.00
2018,09,28,01,14,16.90
2018,09,28,01,15,16.90
2018,09,28,01,16,16.90
2018,09,28,01,17,16.90
2018,09,28,01,18,16.90
2018,09,28,01,19,16.90
2018,09,28,01,20,16.90
2018,09,28,01,21,16.90
2018,09,28,01,22,16.90
2018,09,28,01,23,16.90
2018,09,28,01,24,16.90
2018,09,28,01,25,16.90
2018,09,28,01,26,16.90
2018,09,28,01,27,16.90
2018,09,28,01,28,16.90
2018,09,28,01,29,16.90
2018,09,28,01,30,16.90
2018,09,28,01,31,16.90
2018,09,28,01,32,16.90
2018,09,28,01,33,16.90
2018,09,28,01,34,16.90
2018,09,28,01,35,16.90
2018,09,28,01,36,16.90
2018,09,28,01,37,16.90
2018,09,28,01,38,16.90
2018,09,28,01,39,16.90
2018,09,28,01,40,16.90
2018,09,28,01,41,16.90
2018,09,28,01,42,17.00
2018,09,28,01,43,17.00
2018,09,28,01,44,17.00
2018,09,28,01,45,17.00
2018,09,28,01,46,17.00
2018,09,28,01,47,17.00
2018,09,28,01,48,17.00
2018,09,28,01,49,17.00
2018,09,28,01,50,17.00
2018,09,28,01,51,17.00
2018,09,28,01,52,17.00
2018,09,28,01,53,17.00
2018,09,28,01,54,17.00
2018,09,28,01,55,17.10
2018,09,28,01,56,17.10
2018,09,28,01,57,17.10
2018,09,28,01,58,17.10
2018,09,28,01,59,17.10
2018,09,28,02,00,17.10
2018,09,28,02,01,17.10
2018,09,28,02,02,17.10
2018,09,28,02,03,17.10
2018,09,28,02,04,17.20
2018,09,28,02,05,17.20
2018,09,28,02,06,17.20
2018,09,28,02,07,17.20
2018,09,28,02,08,17.20
2018,09,28,02,09,17.20
2018,09,28,02,10,17.20
2018,09,28,02,11,17.20
2018,09,28,02,12,17.20
2018,09,28,02,13,17.20
2018,09,28,02,14,17.20
2018,09,28,02,15,17.20
2018,09,28,02,16,17.20
2018,09,28,02,17,17.30
2018,09,28,02,18,17.30
2018,09,28,02,19,17.30
2018,09,28,02,20,17.20
2018,09,28,02,21,17.20
2018,09,28,02,22,17.20
2018,09,28,02,23,17.20
2018,09,28,02,24,17.20
2018,09,28,02,25,17.20
2018,09,28,02,26,17.20
2018,09,28,02,27,17.20
2018,09,28,02,28,17.20
2018,09,28,02,29,17.20
2018,09,28,02,30,17.20
2018,09,28,02,31,17.20
2018,09,28,02,32,17.10
2018,09,28,02,33,17.10
2018,09,28,02,34,17.10
2018,09,28,02,35,17.10
2018,09,28,02,36,17.00
2018,09,28,02,37,17.00
2018,09,28,02,38,16.90
2018,09,28,02,39,16.90
2018,09,28,02,40,16.80
2018,09,28,02,41,16.80
2018,09,28,02,42,16.80
2018,09,28,02,43,16.70
2018,09,28,02,44,16.70
2018,09,28,02,45,16.70
2018,09,28,02,46,16.70
2018,09,28,02,47,16.70
2018,09,28,02,48,16.70
2018,09,28,02,49,16.70
2018,09,28,02,50,16.70
2018,09,28,02,51,16.70
2018,09,28,02,52,16.70
2018,09,28,02,53,16.70
2018,09,28,02,54,16.70
2018,09,28,02,55,16.70
2018,09,28,02,56,16.70
2018,09,28,02,57,16.60
2018,09,28,02,58,16.60
2018,09,28,02,59,16.60
2018,09,28,03,00,16.60
2018,09,28,03,01,16.60
2018,09,28,03,02,16.60
2018,09,28,03,03,16.60
2018,09,28,03,04,16.50
2018,09,28,03,05,16.50
2018,09,28,03,06,16.40
2018,09,28,03,07,16.40
2018,09,28,03,08,16.40
2018,09,28,03,09,16.40
2018,09,28,03,10,16.30
2018,09,28,03,11,16.30
2018,09,28,03,12,16.30
2018,09,28,03,13,16.30
2018,09,28,03,14,16.30
2018,09,28,03,15,16.20
2018,09,28,03,16,16.20
2018,09,28,03,17,16.20
2018,09,28,03,18,16.20
2018,09,28,03,19,16.20
2018,09,28,03,20,16.20
2018,09,28,03,21,16.20
2018,09,28,03,22,16.10
2018,09,28,03,23,16.10
2018,09,28,03,24,16.10
2018,09,28,03,25,16.10
2018,09,28,03,26,16.10
2018,09,28,03,27,16.00
2018,09,28,03,28,16.00
2018,09,28,03,29,16.00
2018,09,28,03,30,16.00
2018,09,28,03,31,16.00
2018,09,28,03,32,16.00
2018,09,28,03,33,16.00
2018,09,28,03,34,15.90
2018,09,28,03,35,15.90
2018,09,28,03,36,15.90
2018,09,28,03,37,15.90
2018,09,28,03,38,15.90
2018,09,28,03,39,15.90
2018,09,28,03,40,15.90
2018,09,28,03,41,15.90
2018,09,28,03,42,15.90
2018,09,28,03,43,15.90
2018,09,28,03,44,15.90
2018,09,28,03,45,15.90
2018,09,28,03,46,15.90
2018,09,28,03,47,15.80
2018,09,28,03,48,15.80
2018,09,28,03,49,15.80
2018,09,28,03,50,15.80
2018,09,28,03,51,15.80
2018,09,28,03,52,15.80
2018,09,28,03,53,15.80
2018,09,28,03,54,15.80
2018,09,28,03,55,15.70
2018,09,28,03,56,15.70
2018,09,28,03,57,15.70
2018,09,28,03,58,15.70
2018,09,28,03,59,15.70
2018,09,28,04,00,15.70
2018,09,28,04,01,15.70
2018,09,28,04,02,15.70
2018,09,28,04,03,15.70
2018,09,28,04,04,15.70
2018,09,28,04,05,15.70
2018,09,28,04,06,15.70
2018,09,28,04,07,15.70
2018,09,28,04,08,15.70
2018,09,28,04,09,15.70
2018,09,28,04,10,15.70
2018,09,28,04,11,15.70
2018,09,28,04,12,15.70
2018,09,28,04,13,15.70
2018,09,28,04,14,15.70
2018,09,28,04,15,15.70
2018,09,28,04,16,15.70
2018,09,28,04,17,15.70
2018,09,28,04,18,15.70
2018,09,28,04,19,15.70
2018,09,28,04,20,15.70
2018,09,28,04,21,15.70
2018,09,28,04,22,15.80
2018,09,28,04,23,15.80
2018,09,28,04,24,15.80
2018,09,28,04,25,15.80
2018,09,28,04,26,15.80
2018,09,28,04,27,15.80
2018,09,28,04,28,15.90
2018,09,28,04,29,16.00
2018,09,28,04,30,16.00
2018,09,28,04,31,16.10
2018,09,28,04,32,16.10
2018,09,28,04,33,16.10
2018,09,28,04,34,16.20
2018,09,28,04,35,16.20
2018,09,28,04,36,16.20
2018,09,28,04,37,16.20
2018,09,28,04,38,16.20
2018,09,28,04,39,16.20
2018,09,28,04,40,16.20
2018,09,28,04,41,16.20
2018,09,28,04,42,16.20
2018,09,28,04,43,16.20
2018,09,28,04,44,16.20
2018,09,28,04,45,16.20
2018,09,28,04,46,16.20
2018,09,28,04,47,16.20
2018,09,28,04,48,16.20
2018,09,28,04,49,16.20
2018,09,28,04,50,16.20
2018,09,28,04,51,16.10
2018,09,28,04,52,16.10
2018,09,28,04,53,16.10
2018,09,28,04,54,16.10
2018,09,28,04,55,16.10
2018,09,28,04,56,16.10
2018,09,28,04,57,16.10
2018,09,28,04,58,16.10
2018,09,28,04,59,16.10
2018,09,28,05,00,16.10
2018,09,28,05,01,16.10
2018,09,28,05,02,16.00
2018,09,28,05,03,16.00
2018,09,28,05,04,16.00
2018,09,28,05,05,15.90
2018,09,28,05,06,15.90
2018,09,28,05,07,15.90
2018,09,28,05,08,15.90
2018,09,28,05,09,15.90
2018,09,28,05,10,15.80
2018,09,28,05,11,15.80
2018,09,28,05,12,15.80
2018,09,28,05,13,15.70
2018,09,28,05,14,15.70
2018,09,28,05,15,15.70
2018,09,28,05,16,15.70
2018,09,28,05,17,15.60
2018,09,28,05,18,15.60
2018,09,28,05,19,15.60
2018,09,28,05,20,15.60
2018,09,28,05,21,15.50
2018,09,28,05,22,15.50
2018,09,28,05,23,15.50
2018,09,28,05,24,15.40
2018,09,28,05,25,15.40
2018,09,28,05,26,15.40
2018,09,28,05,27,15.40
2018,09,28,05,28,15.30
2018,09,28,05,29,15.30
2018,09,28,05,30,15.30
2018,09,28,05,31,15.30
2018,09,28,05,32,15.20
2018,09,28,05,33,15.20
2018,09,28,05,34,15.20
2018,09,28,05,35,15.20
2018,09,28,05,36,15.20
2018,09,28,05,37,15.10
2018,09,28,05,38,15.10
2018,09,28,05,39,15.10
2018,09,28,05,40,15.10
2018,09,28,05,41,15.10
2018,09,28,05,42,15.10
2018,09,28,05,43,15.10
2018,09,28,05,44,15.00
2018,09,28,05,45,15.00
2018,09,28,05,46,15.00
2018,09,28,05,47,15.00
2018,09,28,05,48,15.00
2018,09,28,05,49,15.00
2018,09,28,05,50,14.90
2018,09,28,05,51,14.90
2018,09,28,05,52,14.90
2018,09,28,05,53,14.90
2018,09,28,05,54,14.80
2018,09,28,05,55,14.80
2018,09,28,05,56,14.80
2018,09,28,05,57,14.70
2018,09,28,05,58,14.70
2018,09,28,05,59,14.70
2018,09,28,06,00,14.60
2018,09,28,06,01,14.60
2018,09,28,06,02,14.60
2018,09,28,06,03,14.60
2018,09,28,06,04,14.50
2018,09,28,06,05,14.50
2018,09,28,06,06,14.40
2018,09,28,06,07,14.40
2018,09,28,06,08,14.40
2018,09,28,06,09,14.40
2018,09,28,06,10,14.30
2018,09,28,06,11,14.30
2018,09,28,06,12,14.30
2018,09,28,06,13,14.30
2018,09,28,06,14,14.30
2018,09,28,06,15,14.30
2018,09,28,06,16,14.30
2018,09,28,06,17,14.30
2018,09,28,06,18,14.30
2018,09,28,06,19,14.30
2018,09,28,06,20,14.30
2018,09,28,06,21,14.30
2018,09,28,06,22,14.30
2018,09,28,06,23,14.30
2018,09,28,06,24,14.30
2018,09,28,06,25,14.30
2018,09,28,06,26,14.30
2018,09,28,06,27,14.30
2018,09,28,06,28,14.30
2018,09,28,06,29,14.30
2018,09,28,06,30,14.30
2018,09,28,06,31,14.30
2018,09,28,06,32,14.30
2018,09,28,06,33,14.30
2018,09,28,06,34,14.20
2018,09,28,06,35,14.20
2018,09,28,06,36,14.20
2018,09,28,06,37,14.20
2018,09,28,06,38,14.20
2018,09,28,06,39,14.20
2018,09,28,06,40,14.10
2018,09,28,06,41,14.10
2018,09,28,06,42,14.10
2018,09,28,06,43,14.10
2018,09,28,06,44,14.10
2018,09,28,06,45,14.00
2018,09,28,06,46,14.00
2018,09,28,06,47,13.90
2018,09,28,06,48,13.90
2018,09,28,06,49,13.90
2018,09,28,06,50,13.80
2018,09,28,06,51,13.80
2018,09,28,06,52,13.80
2018,09,28,06,53,13.80
2018,09,28,06,54,13.70
2018,09,28,06,55,13.70
2018,09,28,06,56,13.70
2018,09,28,06,57,13.70
2018,09,28,06,58,13.70
2018,09,28,06,59,13.70
2018,09,28,07,00,13.60
2018,09,28,07,01,13.60
2018,09,28,07,02,13.60
2018,09,28,07,03,13.60
2018,09,28,07,04,13.60
2018,09,28,07,05,13.50
2018,09,28,07,06,13.50
2018,09,28,07,07,13.50
2018,09,28,07,08,13.50
2018,09,28,07,09,13.40
2018,09,28,07,10,13.40
2018,09,28,07,11,13.40
2018,09,28,07,12,13.40
2018,09,28,07,13,13.40
2018,09,28,07,14,13.40
2018,09,28,07,15,13.30
2018,09,28,07,16,13.30
2018,09,28,07,17,13.30
2018,09,28,07,18,13.30
2018,09,28,07,19,13.30
2018,09,28,07,20,13.30
2018,09,28,07,21,13.30
2018,09,28,07,22,13.30
2018,09,28,07,23,13.30
2018,09,28,07,24,13.30
2018,09,28,07,25,13.30
2018,09,28,07,26,13.30
2018,09,28,07,27,13.30
2018,09,28,07,28,13.30
2018,09,28,07,29,13.30
2018,09,28,07,30,13.30
2018,09,28,07,31,13.30
2018,09,28,07,32,13.30
2018,09,28,07,33,13.30
2018,09,28,07,34,13.30
2018,09,28,07,35,13.30
2018,09,28,07,36,13.30
2018,09,28,07,37,13.30
2018,09,28,07,38,13.40
2018,09,28,07,39,13.40
2018,09,28,07,40,13.40
2018,09,28,07,41,13.40
2018,09,28,07,42,13.50
2018,09,28,07,43,13.50
2018,09,28,07,44,13.50
2018,09,28,07,45,13.60
2018,09,28,07,46,13.60
2018,09,28,07,47,13.70
2018,09,28,07,48,13.80
2018,09,28,07,49,13.80
2018,09,28,07,50,13.90
2018,09,28,07,51,13.90
2018,09,28,07,52,14.00
2018,09,28,07,53,14.00
2018,09,28,07,54,14.10
2018,09,28,07,55,14.20
2018,09,28,07,56,14.20
2018,09,28,07,57,14.30
2018,09,28,07,58,14.40
2018,09,28,07,59,14.40
2018,09,28,08,00,14.40
2018,09,28,08,01,14.40
2018,09,28,08,02,14.40
2018,09,28,08,03,14.50
2018,09,28,08,04,14.50
2018,09,28,08,05,14.60
2018,09,28,08,06,14.60
2018,09,28,08,07,14.70
2018,09,28,08,08,14.70
2018,09,28,08,09,14.70
2018,09,28,08,10,14.80
2018,09,28,08,11,14.80
2018,09,28,08,12,14.80
2018,09,28,08,13,14.80
2018,09,28,08,14,14.90
2018,09,28,08,15,14.90
2018,09,28,08,16,14.90
2018,09,28,08,17,14.90
2018,09,28,08,18,14.90
2018,09,28,08,19,14.90
2018,09,28,08,20,14.90
2018,09,28,08,21,15.00
2018,09,28,08,22,15.10
2018,09,28,08,23,15.10
2018,09,28,08,24,15.20
2018,09,28,08,25,15.20
2018,09,28,08,26,15.30
2018,09,28,08,27,15.30
2018,09,28,08,28,15.40
2018,09,28,08,29,15.40
2018,09,28,08,30,15.40
2018,09,28,08,31,15.40
2018,09,28,08,32,15.40
2018,09,28,08,33,15.40
2018,09,28,08,34,15.30
2018,09,28,08,35,15.20
2018,09,28,08,36,15.10
2018,09,28,08,37,15.10
2018,09,28,08,38,15.00
2018,09,28,08,39,14.90
2018,09,28,08,40,14.90
2018,09,28,08,41,14.80
2018,09,28,08,42,14.70
2018,09,28,08,43,14.70
2018,09,28,08,44,14.60
2018,09,28,08,45,14.70
2018,09,28,08,46,14.70
2018,09,28,08,47,14.70
2018,09,28,08,48,14.70
2018,09,28,08,49,14.70
2018,09,28,08,50,14.80
2018,09,28,08,51,14.80
2018,09,28,08,52,14.90
2018,09,28,08,53,14.90
2018,09,28,08,54,14.90
2018,09,28,08,55,15.00
2018,09,28,08,56,15.00
2018,09,28,08,57,15.10
2018,09,28,08,58,15.10
2018,09,28,08,59,15.20
2018,09,28,09,00,15.20
2018,09,28,09,01,15.20
2018,09,28,09,02,15.30
2018,09,28,09,03,15.30
2018,09,28,09,04,15.40
2018,09,28,09,05,15.40
2018,09,28,09,06,15.50
2018,09,28,09,07,15.50
2018,09,28,09,08,15.60
2018,09,28,09,09,15.60
2018,09,28,09,10,15.70
2018,09,28,09,11,15.80
2018,09,28,09,12,15.80
2018,09,28,09,13,15.90
2018,09,28,09,14,15.90
2018,09,28,09,15,15.90
2018,09,28,09,16,16.00
2018,09,28,09,17,16.00
2018,09,28,09,18,16.00
2018,09,28,09,19,16.10
2018,09,28,09,20,16.10
2018,09,28,09,21,16.20
2018,09,28,09,22,16.20
2018,09,28,09,23,16.30
2018,09,28,09,24,16.30
2018,09,28,09,25,16.30
2018,09,28,09,26,16.30
2018,09,28,09,27,16.30
2018,09,28,09,28,16.30
2018,09,28,09,29,16.30
2018,09,28,09,30,16.30
2018,09,28,09,31,16.30
2018,09,28,09,32,16.30
2018,09,28,09,33,16.30
2018,09,28,09,34,16.30
2018,09,28,09,35,16.30
2018,09,28,09,36,16.30
2018,09,28,09,37,16.30
2018,09,28,09,38,16.20
2018,09,28,09,39,16.20
2018,09,28,09,40,16.20
2018,09,28,09,41,16.20
2018,09,28,09,42,16.20
2018,09,28,09,43,16.20
2018,09,28,09,44,16.20
2018,09,28,09,45,16.20
2018,09,28,09,46,16.20
2018,09,28,09,47,16.20
2018,09,28,09,48,16.20
2018,09,28,09,49,16.20
2018,09,28,09,50,16.20
2018,09,28,09,51,16.10
2018,09,28,09,52,16.10
2018,09,28,09,53,16.00
2018,09,28,09,54,15.90
2018,09,28,09,55,15.90
2018,09,28,09,56,15.80
2018,09,28,09,57,15.80
2018,09,28,09,58,15.70
2018,09,28,09,59,15.70
2018,09,28,10,00,15.80
2018,09,28,10,01,15.80
2018,09,28,10,02,15.80
2018,09,28,10,03,15.90
2018,09,28,10,04,15.90
2018,09,28,10,05,16.00
2018,09,28,10,06,16.00
2018,09,28,10,07,16.10
2018,09,28,10,08,16.10
2018,09,28,10,09,16.10
2018,09,28,10,10,16.10
2018,09,28,10,11,16.20
2018,09,28,10,12,16.20
2018,09,28,10,13,16.30
2018,09,28,10,14,16.40
2018,09,28,10,15,16.50
2018,09,28,10,16,16.50
2018,09,28,10,17,16.60
2018,09,28,10,18,16.70
2018,09,28,10,19,16.70
2018,09,28,10,20,16.80
2018,09,28,10,21,16.80
2018,09,28,10,22,16.80
2018,09,28,10,23,16.90
2018,09,28,10,24,16.90
2018,09,28,10,25,17.00
2018,09,28,10,26,17.10
2018,09,28,10,27,17.10
2018,09,28,10,28,17.20
2018,09,28,10,29,17.20
2018,09,28,10,30,17.30
2018,09,28,10,31,17.30
2018,09,28,10,32,17.40
2018,09,28,10,33,17.40
2018,09,28,10,34,17.40
2018,09,28,10,35,17.40
2018,09,28,10,36,17.50
2018,09,28,10,37,17.50
2018,09,28,10,38,17.50
2018,09,28,10,39,17.50
2018,09,28,10,40,17.50
2018,09,28,10,41,17.50
2018,09,28,10,42,17.50
2018,09,28,10,43,17.50
2018,09,28,10,44,17.40
2018,09,28,10,45,17.40
2018,09,28,10,46,17.30
2018,09,28,10,47,17.30
2018,09,28,10,48,17.20
2018,09,28,10,49,17.20
2018,09,28,10,50,17.20
2018,09,28,10,51,17.30
2018,09,28,10,52,17.30
2018,09,28,10,53,17.30
2018,09,28,10,54,17.40
2018,09,28,10,55,17.40
2018,09,28,10,56,17.50
2018,09,28,10,57,17.60
2018,09,28,10,58,17.70
2018,09,28,10,59,17.70
2018,09,28,11,00,17.80
2018,09,28,11,01,17.90
2018,09,28,11,02,17.90
2018,09,28,11,03,18.00
2018,09,28,11,04,18.10
2018,09,28,11,05,18.10
2018,09,28,11,06,18.20
2018,09,28,11,07,18.20
2018,09,28,11,08,18.30
2018,09,28,11,09,18.30
2018,09,28,11,10,18.40
2018,09,28,11,11,18.40
2018,09,28,11,12,18.50
2018,09,28,11,13,18.50
2018,09,28,11,14,18.60
2018,09,28,11,15,18.60
2018,09,28,11,16,18.60
2018,09,28,11,17,18.60
2018,09,28,11,18,18.60
2018,09,28,11,19,18.60
2018,09,28,11,20,18.60
2018,09,28,11,21,18.60
2018,09,28,11,22,18.60
2018,09,28,11,23,18.50
2018,09,28,11,24,18.40
2018,09,28,11,25,18.30
2018,09,28,11,26,18.10
2018,09,28,11,27,18.00
2018,09,28,11,28,17.80
2018,09,28,11,29,17.60
2018,09,28,11,30,17.50
2018,09,28,11,31,17.40
2018,09,28,11,32,17.30
2018,09,28,11,33,17.30
2018,09,28,11,34,17.30
2018,09,28,11,35,17.40
2018,09,28,11,36,17.40
2018,09,28,11,37,17.50
2018,09,28,11,38,17.60
2018,09,28,11,39,17.70
2018,09,28,11,40,17.90
2018,09,28,11,41,18.00
2018,09,28,11,42,18.00
2018,09,28,11,43,18.00
2018,09,28,11,44,17.90
2018,09,28,11,45,17.90
2018,09,28,11,46,17.80
2018,09,28,11,47,17.80
2018,09,28,11,48,17.90
2018,09,28,11,49,17.90
2018,09,28,11,50,17.90
2018,09,28,11,51,17.90
2018,09,28,11,52,18.00
2018,09,28,11,53,18.20
2018,09,28,11,54,18.50
2018,09,28,11,55,18.70
2018,09,28,11,56,18.80
2018,09,28,11,57,18.90
2018,09,28,11,58,19.00
2018,09,28,11,59,19.00
2018,09,28,12,00,19.10
2018,09,28,12,01,19.10
2018,09,28,12,02,19.20
2018,09,28,12,03,19.20
2018,09,28,12,04,19.30
2018,09,28,12,05,19.30
2018,09,28,12,06,19.30
2018,09,28,12,07,19.30
2018,09,28,12,08,19.30
2018,09,28,12,09,19.30
2018,09,28,12,10,19.30
2018,09,28,12,11,19.30
2018,09,28,12,12,19.20
2018,09,28,12,13,19.20
2018,09,28,12,14,19.10
2018,09,28,12,15,19.10
2018,09,28,12,16,19.10
2018,09,28,12,17,19.10
2018,09,28,12,18,19.10
2018,09,28,12,19,19.20
2018,09,28,12,20,19.20
2018,09,28,12,21,19.20
2018,09,28,12,22,19.30
2018,09,28,12,23,19.30
2018,09,28,12,24,19.40
2018,09,28,12,25,19.40
2018,09,28,12,26,19.50
2018,09,28,12,27,19.60
2018,09,28,12,28,19.70
2018,09,28,12,29,19.70
2018,09,28,12,30,19.80
2018,09,28,12,31,19.80
2018,09,28,12,32,19.90
2018,09,28,12,33,19.90
2018,09,28,12,34,19.90
2018,09,28,12,35,19.90
2018,09,28,12,36,19.90
2018,09,28,12,37,19.90
2018,09,28,12,38,20.00
2018,09,28,12,39,20.00
2018,09,28,12,40,20.00
2018,09,28,12,41,20.10
2018,09,28,12,42,20.00
2018,09,28,12,43,20.00
2018,09,28,12,44,20.00
2018,09,28,12,45,20.00
2018,09,28,12,46,20.10
2018,09,28,12,47,20.20
2018,09,28,12,48,20.20
2018,09,28,12,49,20.20
2018,09,28,12,50,20.20
2018,09,28,12,51,20.20
2018,09,28,12,52,20.20
2018,09,28,12,53,20.30
2018,09,28,12,54,20.30
2018,09,28,12,55,20.30
2018,09,28,12,56,20.30
2018,09,28,12,57,20.30
2018,09,28,12,58,20.30
2018,09,28,12,59,20.30
2018,09,28,13,00,20.30
2018,09,28,13,01,20.40
2018,09,28,13,02,20.40
2018,09,28,13,03,20.40
2018,09,28,13,04,20.50
2018,09,28,13,05,20.50
2018,09,28,13,06,20.60
2018,09,28,13,07,20.60
2018,09,28,13,08,20.60
2018,09,28,13,09,20.60
2018,09,28,13,10,20.70
2018,09,28,13,11,20.70
2018,09,28,13,12,20.70
2018,09,28,13,13,20.60
2018,09,28,13,14,20.60
2018,09,28,13,15,20.60
2018,09,28,13,16,20.60
2018,09,28,13,17,20.60
2018,09,28,13,18,20.60
2018,09,28,13,19,20.70
2018,09,28,13,20,20.70
2018,09,28,13,21,20.70
2018,09,28,13,22,20.70
2018,09,28,13,23,20.70
2018,09,28,13,24,20.60
2018,09,28,13,25,20.60
2018,09,28,13,26,20.60
2018,09,28,13,27,20.60
2018,09,28,13,28,20.60
2018,09,28,13,29,20.60
2018,09,28,13,30,20.70
2018,09,28,13,31,20.70
2018,09,28,13,32,20.70
2018,09,28,13,33,20.70
2018,09,28,13,34,20.80
2018,09,28,13,35,20.80
2018,09,28,13,36,20.90
2018,09,28,13,37,20.90
2018,09,28,13,38,21.00
2018,09,28,13,39,21.00
2018,09,28,13,40,21.00
2018,09,28,13,41,21.00
2018,09,28,13,42,21.10
2018,09,28,13,43,21.10
2018,09,28,13,44,21.10
2018,09,28,13,45,21.20
2018,09,28,13,46,21.20
2018,09,28,13,47,21.30
2018,09,28,13,48,21.30
2018,09,28,13,49,21.40
2018,09,28,13,50,21.40
2018,09,28,13,51,21.50
2018,09,28,13,52,21.50
2018,09,28,13,53,21.50
2018,09,28,13,54,21.60
2018,09,28,13,55,21.60
2018,09,28,13,56,21.50
2018,09,28,13,57,21.50
2018,09,28,13,58,21.50
2018,09,28,13,59,21.50
2018,09,28,14,00,21.50
2018,09,28,14,01,21.40
2018,09,28,14,02,21.40
2018,09,28,14,03,21.40
2018,09,28,14,04,21.40
2018,09,28,14,05,21.40
2018,09,28,14,06,21.40
2018,09,28,14,07,21.40
2018,09,28,14,08,21.40
2018,09,28,14,09,21.50
2018,09,28,14,10,21.50
2018,09,28,14,11,21.60
2018,09,28,14,12,21.60
2018,09,28,14,13,21.60
2018,09,28,14,14,21.70
2018,09,28,14,15,21.70
2018,09,28,14,16,21.70
2018,09,28,14,17,21.70
2018,09,28,14,18,21.70
2018,09,28,14,19,21.70
2018,09,28,14,20,21.70
2018,09,28,14,21,21.70
2018,09,28,14,22,21.70
2018,09,28,14,23,21.70
2018,09,28,14,24,21.70
2018,09,28,14,25,21.70
2018,09,28,14,26,21.70
2018,09,28,14,27,21.70
2018,09,28,14,28,21.70
2018,09,28,14,29,21.70
2018,09,28,14,30,21.70
2018,09,28,14,31,21.70
2018,09,28,14,32,21.60
2018,09,28,14,33,21.60
2018,09,28,14,34,21.60
2018,09,28,14,35,21.60
2018,09,28,14,36,21.60
2018,09,28,14,37,21.60
2018,09,28,14,38,21.70
2018,09,28,14,39,21.60
2018,09,28,14,40,21.60
2018,09,28,14,41,21.60
2018,09,28,14,42,21.60
2018,09,28,14,43,21.60
2018,09,28,14,44,21.60
2018,09,28,14,45,21.60
2018,09,28,14,46,21.60
2018,09,28,14,47,21.60
2018,09,28,14,48,21.60
2018,09,28,14,49,21.60
2018,09,28,14,50,21.70
2018,09,28,14,51,21.70
2018,09,28,14,52,21.70
2018,09,28,14,53,21.70
2018,09,28,14,54,21.60
2018,09,28,14,55,21.60
2018,09,28,14,56,21.60
2018,09,28,14,57,21.70
2018,09,28,14,58,21.70
2018,09,28,14,59,21.70
2018,09,28,15,00,21.70
2018,09,28,15,01,21.80
2018,09,28,15,02,21.80
2018,09,28,15,03,21.90
2018,09,28,15,04,21.90
2018,09,28,15,05,21.90
2018,09,28,15,06,21.90
2018,09,28,15,07,21.90
2018,09,28,15,08,21.80
2018,09,28,15,09,21.80
2018,09,28,15,10,21.80
2018,09,28,15,11,21.80
2018,09,28,15,12,21.80
2018,09,28,15,13,21.80
2018,09,28,15,14,21.70
2018,09,28,15,15,21.70
2018,09,28,15,16,21.70
2018,09,28,15,17,21.70
2018,09,28,15,18,21.70
2018,09,28,15,19,21.80
2018,09,28,15,20,21.80
2018,09,28,15,21,21.80
2018,09,28,15,22,21.90
2018,09,28,15,23,21.90
2018,09,28,15,24,21.90
2018,09,28,15,25,21.90
2018,09,28,15,26,21.80
2018,09,28,15,27,21.80
2018,09,28,15,28,21.90
2018,09,28,15,29,21.90
2018,09,28,15,30,21.90
2018,09,28,15,31,21.90
2018,09,28,15,32,22.00
2018,09,28,15,33,22.00
2018,09,28,15,34,21.90
2018,09,28,15,35,21.90
2018,09,28,15,36,22.00
2018,09,28,15,37,22.00
2018,09,28,15,38,22.10
2018,09,28,15,39,22.10
2018,09,28,15,40,22.10
2018,09,28,15,41,22.10
2018,09,28,15,42,22.20
2018,09,28,15,43,22.20
2018,09,28,15,44,22.20
2018,09,28,15,45,22.20
2018,09,28,15,46,22.20
2018,09,28,15,47,22.30
2018,09,28,15,48,22.30
2018,09,28,15,49,22.30
2018,09,28,15,50,22.30
2018,09,28,15,51,22.30
2018,09,28,15,52,22.30
2018,09,28,15,53,22.30
2018,09,28,15,54,22.30
2018,09,28,15,55,22.30
2018,09,28,15,56,22.30
2018,09,28,15,57,22.30
2018,09,28,15,58,22.30
2018,09,28,15,59,22.30
2018,09,28,16,00,22.30
2018,09,28,16,01,22.30
2018,09,28,16,02,22.40
2018,09,28,16,03,22.40
2018,09,28,16,04,22.40
2018,09,28,16,05,22.30
2018,09,28,16,06,22.30
2018,09,28,16,07,22.40
2018,09,28,16,08,22.40
2018,09,28,16,09,22.40
2018,09,28,16,10,22.40
2018,09,28,16,11,22.40
2018,09,28,16,12,22.40
2018,09,28,16,13,22.40
2018,09,28,16,14,22.50
2018,09,28,16,15,22.60
2018,09,28,16,16,22.70
2018,09,28,16,17,22.80
2018,09,28,16,18,22.90
2018,09,28,16,19,23.00
2018,09,28,16,20,23.10
2018,09,28,16,21,23.20
2018,09,28,16,22,23.20
2018,09,28,16,23,23.30
2018,09,28,16,24,23.20
2018,09,28,16,25,23.10
2018,09,28,16,26,23.00
2018,09,28,16,27,23.00
2018,09,28,16,28,22.90
2018,09,28,16,29,22.80
2018,09,28,16,30,22.80
2018,09,28,16,31,22.80
2018,09,28,16,32,22.70
2018,09,28,16,33,22.60
2018,09,28,16,34,22.50
2018,09,28,16,35,22.50
2018,09,28,16,36,22.40
2018,09,28,16,37,22.40
2018,09,28,16,38,22.40
2018,09,28,16,39,22.40
2018,09,28,16,40,22.50
2018,09,28,16,41,22.50
2018,09,28,16,42,22.60
2018,09,28,16,43,22.60
2018,09,28,16,44,22.50
2018,09,28,16,45,22.40
2018,09,28,16,46,22.30
2018,09,28,16,47,22.20
2018,09,28,16,48,22.20
2018,09,28,16,49,22.20
2018,09,28,16,50,22.10
2018,09,28,16,51,22.10
2018,09,28,16,52,22.00
2018,09,28,16,53,21.90
2018,09,28,16,54,21.80
2018,09,28,16,55,21.70
2018,09,28,16,56,21.70
2018,09,28,16,57,21.60
2018,09,28,16,58,21.50
2018,09,28,16,59,21.40
2018,09,28,17,00,21.40
2018,09,28,17,01,21.40
2018,09,28,17,02,21.40
2018,09,28,17,03,21.40
2018,09,28,17,04,21.50
2018,09,28,17,05,21.50
2018,09,28,17,06,21.60
2018,09,28,17,07,21.60
2018,09,28,17,08,21.60
2018,09,28,17,09,21.60
2018,09,28,17,10,21.60
2018,09,28,17,11,21.70
2018,09,28,17,12,21.60
2018,09,28,17,13,21.60
2018,09,28,17,14,21.60
2018,09,28,17,15,21.60
2018,09,28,17,16,21.60
2018,09,28,17,17,21.70
2018,09,28,17,18,21.70
2018,09,28,17,19,21.80